Lexington Weather

Lexington, Massachusetts, USA

34°F
4/16/2021 9:14am 
  • Lexington Conditions: Light snow, Mist, Overcast
  • Temperature: 34.3°F / 1.3°CColder 4.2°F than last hour.
  • Dew Point: 33.1°FDecreased 4.1°Fsince last hour.
  • Relative Humidity: 95
  • Wind: Wind from N N 1 mph, 10-min avg: 1 mph, gust: 3 mph
  • Barometer: 29.48 inFalling 0.04  inHg/hr Falling Slowly
  • Visibility: 2 miles
  • Snow Today: 0.3 in
  •   

Regional Weather Roundup
for Boston / Norton, MA

        
000
ASUS41 KBOX 160904
RWRBOX

REGIONAL WEATHER ROUNDUP
NATIONAL WEATHER SERVICE BOSTON/NORTON MA
500 AM EDT FRI APR 16 2021

NOTE:  "FAIR" INDICATES FEW OR NO CLOUDS BELOW 12,000 FEET WITH NO 
SIGNIFICANT WEATHER AND/OR OBSTRUCTIONS TO VISIBILITY.

MAZALL-161000-
EASTERN MASSACHUSETTS
  
CITY           SKY/WX    TMP DP  RH WIND       PRES   REMARKS
BOSTON         LGT RAIN  42  41  96 N10       29.62F FOG              
BEVERLY        NOT AVBL                                               
LAWRENCE       LGT RAIN  39  37  92 NE12      29.66F WCI  32          
BEDFORD        LGT RAIN  39  38  96 NE7       29.63F                  
BLUE HILL        N/A     37  37 100 NE12G20   29.57F WCI  29          
NORWOOD        RAIN      41  37  86 N9        29.60F FOG              
MARSHFIELD     LGT RAIN  45  45 100 NE18G28   29.58F                  
PLYMOUTH       RAIN      43  40  89 NE15G21   29.55F FOG              
TAUNTON        LGT RAIN  42  40  92 N6        29.56F FOG              
NEW BEDFORD    LGT RAIN  43  41  93 N8        29.54F                  
$$

MAZALL-161000-
CAPE COD AND THE ISLANDS
  
CITY           SKY/WX    TMP DP  RH WIND       PRES   REMARKS
FALMOUTH       NOT AVBL                                               
HYANNIS        LGT RAIN  46  43  89 NE12      29.49F                  
CHATHAM        LGT RAIN  45  42  89 NE21G26   29.52F FOG              
PROVINCETOWN   LGT RAIN  43  42  97 NE20G26   29.57F FOG              
NANTUCKET      LGT RAIN  47  45  93 E23G33    29.43F FOG              
MARTHAS VNYRD  RAIN      45  44  97 NE16G25   29.48F FOG              
$$
 
MAZALL-161000-
CENTRAL AND WESTERN MASSACHUSETTS
  
CITY           SKY/WX    TMP DP  RH WIND       PRES   REMARKS
WORCESTER      LGT SNOW  33  31  92 N13G18    29.60F FOG     WCI  24  
FITCHBURG      LGT SNOW  34  34 100 N5        29.65F FOG     WCI  30  
ORANGE         FLURRIES  33  33 100 N5        29.64F WCI  29          
SPRINGFIELD    FLURRIES  33  33  99 N7        29.63S WCI  27          
WESTFIELD      LGT SNOW  33  33 100 N6        29.65S FOG     WCI  28  
NORTH ADAMS    FLURRIES  34  34 100 W3        29.66F                  
PITTSFIELD     LGT SNOW  33  32  96 CALM      29.62F FOG              
$$
 
RIZALL-161000-
RHODE ISLAND
  
CITY           SKY/WX    TMP DP  RH WIND       PRES   REMARKS
PROVIDENCE     RAIN      38  37  97 N16       29.57F FOG     WCI  29  
NEWPORT        RAIN      39  38  96 N13       29.54F FOG     WCI  31  
BLOCK ISLAND   CLOUDY    39  38  96 N13       29.55F WCI  31          
SMITHFIELD     LGT RAIN  35  35 100 N12       29.59F WCI  27          
WESTERLY       CLOUDY    35  34  96 N14       29.56F WCI  26          
$$
 
CTZALL-161000-
CONNECTICUT
  
CITY           SKY/WX    TMP DP  RH WIND       PRES   REMARKS
BRADLEY INTL   LGT SNOW  35  32  88 N8        29.64F FOG     WCI  29  
HARTFORD       LGT SNOW  36  32  85 N10       29.65F FOG     WCI  28  
BRIDGEPORT     CLOUDY    40  36  86 N7        29.65F                  
DANBURY        CLOUDY    40  35  83 W6        29.66F                  
GROTON         LGT RAIN  37  35  92 NW12      29.59S WCI  29          
NEW HAVEN      CLOUDY    39  36  89 NW7       29.64F                  
CHESTER        CLOUDY    36  36 100 NW8       29.61F WCI  29          
MERIDEN        MIX PCPN  35  33  92 NW6       29.65F WCI  30          
WILLIMANTIC    LGT RAIN  36  34  92 NW6       29.62S WCI  31          
OXFORD         LGT RAIN  35  35 100 NW5       29.64F WCI  31          
$$

MEZ002-015-021-024-NHZ003-005-008-011-012-014-VTZ005-008-161000-
NORTHERN NEW ENGLAND
  
CITY           SKY/WX    TMP DP  RH WIND       PRES   REMARKS
PORTLAND ME    LGT RAIN  42  36  79 E14       29.73F                  
BANGOR ME      CLOUDY    39  33  79 E8        29.81S                  
CONCORD NH     LGT RAIN  38  35  89 NE7       29.69F                  
MANCHESTER NH  LGT RAIN  40  35  83 NE12      29.65F                  
NASHUA NH      LGT RAIN  39  39 100 VRB7      29.66F                  
PORTSMOUTH NH  LGT RAIN  41  35  81 E15G25    29.69F                  
JAFFREY NH     LGT SNOW  34  32  92 CALM      29.63F FOG              
KEENE NH       FLURRIES N/A N/A N/A NE3       29.66F                  
BURLINGTON VT  LGT RAIN  39  33  79 SE9       29.73R                  
MT. WASHINGTON SNOW      16  16 100 E56         N/A  VSB 0   WCI -10  
$$

NYZ052-076-161000-
EASTERN NEW YORK
  
CITY           SKY/WX    TMP DP  RH WIND       PRES   REMARKS
ALBANY         LGT SNOW  31  31 100 CALM      29.68F FOG              
NEW YORK CITY  MOCLDY    43  36  76 NW7       29.67F                  
$$
 
ANZALL-161000-
MARINE OBSERVATIONS
  
STATION/POSITION TIME  TEMP    WIND        PRES    VSBY  WAVE
                       AIR SEA DIR/SP/G                  HT/PER
                 (UTC) (F)     (DEG/KT/KT) (MB)    (MI)  (FT/S)
BOSTON BUOY      0840   43 44   50/ 17/ 21 1003.0F
BUZZARDS BAY     0800          360/ 19/ 20 1001.5F
NANTUCKET SOUND  0840      47                N/A
MASS BAY-STELLWA 0804   44      70/ 16/ 19 1002.5F  1 7/8  6/11
ISLE OF SHOALS   0800   43      60/ 22/ 23 1004.4F
S OF BLOCK IS    0826      44                N/A           7/ 7
$$

......................KEY.........................
  SKY/WX - SKY CONDITION/PRESENT WEATHER
  TMP    - TEMPERATURE IN FAHRENHEIT
  DWPT   - DEWPOINT IN FAHRENHEIT
  RH     - RELATIVE HUMIDITY IN PERCENT
  WIND   - DIRECTION AND SPEED IN MPH
  PRES   - MEAN SEA LEVEL PRESSURE IN INCHES OF HG
  WCI    - WIND CHILL INDEX
  VSB    - VISIBILITY IN MILES
  HX     - HEAT INDEX
  TC     - TEMPERATURE IN CELSIUS
  VRB    - VARIABLE WIND DIRECTION
  N/A    - NOT AVAILABLE
  
      

Other recent Regional Weather Roundups

Fri Apr 16, 9:04am

Fri Apr 16, 8:04am

Fri Apr 16, 7:04am

Fri Apr 16, 6:04am

Fri Apr 16, 4:04am

Fri Apr 16, 3:04am

Fri Apr 16, 2:04am

Fri Apr 16, 1:04am

Fri Apr 16, 12:04am

Thu Apr 15, 11:05pm

Thu Apr 15, 10:04pm

Thu Apr 15, 9:04pm

Thu Apr 15, 8:04pm

Thu Apr 15, 7:05pm

Thu Apr 15, 6:04pm

Thu Apr 15, 5:05pm

Thu Apr 15, 4:04pm

Thu Apr 15, 3:05pm

Thu Apr 15, 2:04pm

Thu Apr 15, 1:05pm

Thu Apr 15, 12:04pm

Thu Apr 15, 11:04am

Thu Apr 15, 10:05am

Thu Apr 15, 9:04am

Thu Apr 15, 8:04am

Thu Apr 15, 7:04am

Thu Apr 15, 6:04am

Thu Apr 15, 5:04am

Thu Apr 15, 4:04am

Thu Apr 15, 3:04am

Thu Apr 15, 2:04am

Thu Apr 15, 1:04am

Thu Apr 15, 12:04am

Wed Apr 14, 11:04pm

Wed Apr 14, 10:04pm

Wed Apr 14, 9:04pm

Wed Apr 14, 8:04pm

Wed Apr 14, 7:04pm

Wed Apr 14, 6:04pm

Wed Apr 14, 5:05pm

Wed Apr 14, 4:04pm

Wed Apr 14, 3:05pm

Wed Apr 14, 2:04pm

Wed Apr 14, 1:05pm

Wed Apr 14, 12:04pm

Wed Apr 14, 11:04am

Wed Apr 14, 10:04am

Wed Apr 14, 9:04am

Wed Apr 14, 8:04am

Wed Apr 14, 7:04am

Wed Apr 14, 6:04am

Wed Apr 14, 5:04am

Wed Apr 14, 4:04am

Wed Apr 14, 3:04am

Wed Apr 14, 2:04am

Wed Apr 14, 1:04am

Wed Apr 14, 12:04am

Tue Apr 13, 11:04pm

Tue Apr 13, 10:05pm

Tue Apr 13, 9:05pm

Tue Apr 13, 8:05pm

Tue Apr 13, 7:04pm

Tue Apr 13, 6:04pm

Tue Apr 13, 5:05pm

Tue Apr 13, 4:04pm

Tue Apr 13, 3:04pm

Tue Apr 13, 2:05pm

Tue Apr 13, 1:04pm

Tue Apr 13, 12:05pm

Tue Apr 13, 11:05am

Tue Apr 13, 10:04am

Tue Apr 13, 9:04am

Tue Apr 13, 8:04am

Tue Apr 13, 7:04am

Tue Apr 13, 6:04am

Tue Apr 13, 5:04am

Tue Apr 13, 4:04am

Tue Apr 13, 3:04am

Tue Apr 13, 2:04am

Tue Apr 13, 1:04am

Tue Apr 13, 12:05am

Mon Apr 12, 11:04pm

Mon Apr 12, 10:04pm

Mon Apr 12, 9:04pm

Mon Apr 12, 8:04pm

Mon Apr 12, 7:05pm

Mon Apr 12, 6:04pm

Mon Apr 12, 5:04pm

Mon Apr 12, 4:04pm

Mon Apr 12, 3:05pm

Mon Apr 12, 2:04pm

Mon Apr 12, 1:05pm

Mon Apr 12, 12:04pm

Mon Apr 12, 11:04am

Mon Apr 12, 10:04am

Mon Apr 12, 9:04am

Mon Apr 12, 8:04am

Mon Apr 12, 7:04am

Mon Apr 12, 6:04am

Mon Apr 12, 5:04am

Mon Apr 12, 4:04am

Mon Apr 12, 3:04am

Mon Apr 12, 2:04am

Mon Apr 12, 1:05am

Mon Apr 12, 12:04am

Sun Apr 11, 11:04pm

Sun Apr 11, 10:04pm

Sun Apr 11, 9:04pm

Sun Apr 11, 8:04pm

Sun Apr 11, 7:04pm

Sun Apr 11, 6:05pm

Sun Apr 11, 5:05pm

Sun Apr 11, 4:04pm

Sun Apr 11, 3:05pm

Sun Apr 11, 2:05pm

Sun Apr 11, 1:05pm

Sun Apr 11, 12:04pm

Sun Apr 11, 11:05am

Sun Apr 11, 10:05am

Sun Apr 11, 9:04am

Sun Apr 11, 8:04am

Sun Apr 11, 7:04am

Sun Apr 11, 6:04am

Sun Apr 11, 5:04am

Sun Apr 11, 4:04am

Sun Apr 11, 3:04am

Sun Apr 11, 2:04am

Sun Apr 11, 1:05am

Sun Apr 11, 12:04am

Sat Apr 10, 11:05pm

Sat Apr 10, 10:04pm

Sat Apr 10, 9:04pm

Sat Apr 10, 8:04pm

Sat Apr 10, 7:05pm

Sat Apr 10, 6:04pm

Sat Apr 10, 5:04pm

Sat Apr 10, 4:04pm

Sat Apr 10, 3:04pm

Sat Apr 10, 2:05pm

Sat Apr 10, 1:04pm

Sat Apr 10, 12:04pm

Sat Apr 10, 11:04am

Sat Apr 10, 10:04am

Sat Apr 10, 9:04am

Sat Apr 10, 8:04am

Sat Apr 10, 7:04am

Sat Apr 10, 6:04am

Sat Apr 10, 5:04am

Sat Apr 10, 4:04am

Sat Apr 10, 3:04am

Sat Apr 10, 2:04am

Sat Apr 10, 1:05am

Sat Apr 10, 12:04am

Fri Apr 9, 11:04pm

Fri Apr 9, 10:05pm

Fri Apr 9, 9:04pm

Fri Apr 9, 8:05pm

Fri Apr 9, 7:05pm

Fri Apr 9, 6:04pm

Fri Apr 9, 5:04pm

Fri Apr 9, 4:05pm

Fri Apr 9, 3:05pm

Fri Apr 9, 2:04pm

Fri Apr 9, 1:04pm

Fri Apr 9, 12:04pm

Fri Apr 9, 11:05am

Fri Apr 9, 10:04am

Fri Apr 9, 9:04am

Meta data:

ID: e5f9a0ae-6676-4cb4-bcdf-9b4514dbd937
Link: https://api.weather.gov/products/e5f9a0ae-6676-4cb4-bcdf-9b4514dbd937